This is the latest recevied weather packets stored in our database for station/object DJ8HS-13. If no packets are shown the sender has not sent any weather packets the latest 10 day(s).
| Time | Temp. | Humidity | Pressure | Rain* | Wind** | Luminosity | Snow |
|---|---|---|---|---|---|---|---|
| 1777808078 | 26.67° C | 23% | 0 hPa | 0 mm | - | - | - |
| 1777807778 | 26.67° C | 23% | 0 hPa | 0 mm | - | - | - |
| 1777807478 | 27.22° C | 23% | 0 hPa | 0 mm | - | - | - |
| 1777807178 | 26.67° C | 23% | 0 hPa | 0 mm | - | - | - |
| 1777806878 | 26.67° C | 23% | 0 hPa | 0 mm | - | - | - |
| 1777806578 | 26.67° C | 23% | 0 hPa | 0 mm | - | - | - |
| 1777806278 | 27.22° C | 22% | 0 hPa | 0 mm | - | - | - |
| 1777805978 | 27.22° C | 22% | 0 hPa | 0 mm | - | - | - |
| 1777805678 | 27.22° C | 21% | 0 hPa | 0 mm | - | - | - |
| 1777805378 | 27.22° C | 21% | 0 hPa | 0 mm | - | - | - |
| 1777805078 | 27.78° C | 21% | 0 hPa | 0 mm | - | - | - |
| 1777804778 | 27.78° C | 20% | 0 hPa | 0 mm | - | - | - |
| 1777804478 | 27.78° C | 21% | 0 hPa | 0 mm | - | - | - |
| 1777804178 | 27.22° C | 21% | 0 hPa | 0 mm | - | - | - |
| 1777803878 | 27.22° C | 20% | 0 hPa | 0 mm | - | - | - |
| 1777803578 | 26.67° C | 22% | 0 hPa | 0 mm | - | - | - |
| 1777803278 | 26.67° C | 20% | 0 hPa | 0 mm | - | - | - |
| 1777802978 | 26.67° C | 22% | 0 hPa | 0 mm | - | - | - |
| 1777802678 | 26.67° C | 22% | 0 hPa | 0 mm | - | - | - |
| 1777802378 | 26.11° C | 23% | 0 hPa | 0 mm | - | - | - |
| 1777802078 | 26.11° C | 23% | 0 hPa | 0 mm | - | - | - |
| 1777801778 | 26.11° C | 26% | 0 hPa | 0 mm | - | - | - |
| 1777801478 | 25.56° C | 27% | 0 hPa | 0 mm | - | - | - |
| 1777801178 | 25.56° C | 33% | 0 hPa | 0 mm | - | - | - |
| 1777800878 | 25° C | 34% | 0 hPa | 0 mm | - | - | - |
* Rain latest hour (hover to see other rain measurements)
** Current wind speed in m/s (hover to see current wind gust speed)